Hundvaag 1 weather for Apr 1997
Month no. 118
Obs.
Da.
Temp. Dew Point Precip. Wind
Speed
Wind gusts Cloud cover Press. Humidity Wind dir. Sunny OPT
01.04.1997 6,8   4,0     0          
02.04.1997 5,2   0,0     0          
03.04.1997 4,1   8,0     0          
04.04.1997 2,4   6,0     4          
05.04.1997 -0,4   0,0     0          
06.04.1997 1,1   1,0     10          
07.04.1997 0,4   0,0     9       1  
08.04.1997 3,4   0,0     0          
09.04.1997 5,8   4,0     0          
10.04.1997 6,1   5,0     0          
11.04.1997 1,3   3,0     2          
12.04.1997 5,2   0,0     9          
13.04.1997 6,8   2,0     0       1  
14.04.1997 3,5   1,0     8          
15.04.1997 2,6   0,0     4       1  
16.04.1997 5,3   0,0     0       1  
17.04.1997 5,3   0,0     0          
18.04.1997 3,9   0,0     4          
19.04.1997 1,9   0,0     10       1  
20.04.1997 -1,4   0,0     10       1  
21.04.1997 3,0   7,0     0       1  
22.04.1997 -1,2   1,0     0          
23.04.1997 0,9   0,0     0          
24.04.1997 5,2   8,0     2          
25.04.1997 2,2   23,0     0          
26.04.1997 5,2   0,0     9       1  
27.04.1997 6,9   0,0     10       1  
28.04.1997 8,3   0,0     9       1  
29.04.1997 7,6   0,0     0          
30.04.1997 4,2   0,0     6       1  
                       
Avrg/Sum 3,7   73,0     3,5       11